Regional Weather Roundup
Issued by NWS

Home | Current Version | Previous Version | Text Only | Print | Product List | Glossary On
Versions: 1 2 3 4 5 6 7 8 9 10 11 12 13 14 15 16 17 18 19 20 21 22 23 24 25 26 27 28 29 30 31 32 33 34 35 36 37 38 39 40 41 42 43 44 45 46 47 48 49 50
000
ASHW40 PHFO 061943
RWRHI

WEATHER ROUNDUP FOR HAWAII
NATIONAL WEATHER SERVICE HONOLULU HI
900 AM HST FRI MAY 06 2016

THIS IS AN AUTOMATED REPORT THAT HAS NOT BEEN QUALITY CONTROLLED.

NOTE..."FAIR" INDICATES FEW OR NO CLOUDS BELOW 12,000 FEET WITH NO
SIGNIFICANT WEATHER AND/OR OBSTRUCTIONS TO VISIBILITY.

* - THESE SITES REPORT LIMITED FIELDS

HIZ001>004-062000-
KAUAI-NIIHAU-

CITY           SKY/WX    TMP DP  RH WIND       PRES   REMARKS
LIHUE APT      MOSUNNY   81  65  58 SW9       30.06S
PORT ALLEN*      N/A     82 N/A N/A NW5         N/A
POIPU*           N/A     81 N/A N/A SW6G13      N/A
PRINCEVILLE*     N/A     81 N/A N/A NE1         N/A
KOKOLE POINT*  NOT AVBL
MOLOAA DAIRY*    N/A     82  70  65 N1          N/A
WAIMEA HTS*      N/A     84  68  58 SW5         N/A
PUU OPAE*        N/A     73  63  68 S3G9        N/A
PUU LUA*       NOT AVBL
MAKAHA RIDGE*    N/A     75  63  64 S5G16       N/A
$$

HIZ005>011-062000-
OAHU-

CITY           SKY/WX    TMP DP  RH WIND       PRES   REMARKS
HONOLULU       MOSUNNY   80  69  69 SW7       30.06R
KALAELOA       PTSUNNY   79  68  69 SW12      30.07S
KANEOHE MCB    PTSUNNY   79  66  64 SW6       30.03R
WHEELER FIELD  FAIR      77  67  71 VRB1      30.06R
BELLOWS*         N/A    N/A N/A N/A SE1         N/A
KAHUKU*          N/A    N/A N/A N/A VRB5        N/A
WHEELER*         N/A    N/A N/A N/A S3G9        N/A
WAIANAE HARBOR   N/A    N/A N/A N/A W2          N/A
DILLINGHAM*      N/A     70  54  56 MISG        N/A
KAHUKU TRN*      N/A     81  68  65 CALM        N/A
KAWAILOA*        N/A     77  64  65 S3          N/A
KII*             N/A     81  72  74 SW8         N/A
MAKUA RANGE*     N/A     70  59  68 SW3G9       N/A
OAHU FOREST NW   N/A     73  66  78 NE3         N/A
SCHOFIELD BRK*   N/A     64  54  68 MISG        N/A
SCHOFIELD S*   NOT AVBL
WAIANAE VLY*     N/A     84  70  61 SE7G13      N/A
KUAOKALA*        N/A     75  68  78 N6G13       N/A
HONOULIUULI*   NOT AVBL
MOKUOLOE IS*   NOT AVBL
PALEHUA*         N/A     70  68  94 SW6G12      N/A
WAIAWA PHB*    NOT AVBL
$$

HIZ012>013-062000-
MOLOKAI-

CITY           SKY/WX    TMP DP  RH WIND       PRES   REMARKS
MOLOKAI AIRPT  PTSUNNY   76  63  64 S6        30.08S
KALAUPAPA      NOT AVBL
MAKAPULAPAI*     N/A     79  66  65 SW7G13      N/A
MOLOKAI 1*       N/A     66  63  88 NW1         N/A
PUU ALII*        N/A     60  60 100 SW1         N/A
$$

HIZ016-062000-
KAHOOLAWE-

CITY           SKY/WX    TMP DP  RH WIND       PRES   REMARKS
KAHOOLAWE*       N/A     73 N/A N/A N1          N/A
HAKIOAWA*        N/A     76  69  79 MISG      30.49S
HONOKANAIA*      N/A     78  71  78 W6          N/A
KANELOA*         N/A     75  68  78 N5        30.13R
KEALIALALO*    NOT AVBL
LUA MAKIKA*    NOT AVBL
$$

HIZ014>015-062000-
LANAI-

CITY           SKY/WX    TMP DP  RH WIND       PRES   REMARKS
LANAI CITY     CLOUDY    70  66  88 NW12      30.13R
LANAI 1*         N/A     70  66  88 NW12        N/A
$$

HIZ017>028-062000-
MAUI-

CITY           SKY/WX    TMP DP  RH WIND       PRES   REMARKS
KAHULUI        MOSUNNY   81  66  60 NE6       30.06S
KAPALUA-W MAUI PTSUNNY   77  66  69 VRB6      30.08R
HANA AIRPORT   NOT AVBL
HANA*            N/A     77 N/A N/A SE6G14      N/A
HALEAKALA SUMM   N/A     59  28  31 S5G18       N/A
MAALAEA BAY*     N/A     84 N/A N/A S6          N/A
HALEAKALA*     NOT AVBL
KAUPO GAP*       N/A     64  61  88 E1G10       N/A
KULA 1*          N/A     58  51  79 N1          N/A
$$

HIZ023>026-062000-
BIG ISLAND OF HAWAII COAST AND LOWER SLOPES-

CITY           SKY/WX    TMP DP  RH WIND       PRES   REMARKS
KAILUA KONA    MOSUNNY   81  67  62 SW6       30.05R
HILO           PTSUNNY   77  69  76 S3        30.08R
HONOKAA*         N/A     81 N/A N/A VRB1        N/A
KAWAIHAE MWT*    N/A     82 N/A N/A W6          N/A
KAWAIHAE*        N/A     79 N/A N/A W9        30.05S
SOUTH POINT*     N/A     70 N/A N/A N10G18      N/A
UPOLU AIRPORT*   N/A    N/A N/A N/A SW8         N/A
KAMUELA*       CLEAR     79  57  47 W3        30.16S
HAKALAU*         N/A     60  53  76 S8          N/A
KALOKO-HONOKO*   N/A     84  66  54 W6        30.05R
PALI 2*          N/A     66  64  94 W6G12       N/A
KEALAKOMO*       N/A     81  70  69 E8G15       N/A
KAUPULEHU*       N/A    N/A N/A N/A W7          N/A
KAPAPALA*        N/A     73  63  69 N5G10       N/A
LOWER KAHUKU*    N/A     64 -38   1 VRB3G10     N/A
PUHE CS*         N/A     82  64  54 W3          N/A
PUHO CS*         N/A     85  64  49 NW1         N/A
PTA KEAMUKU*     N/A     70  59  68 CALM        N/A
WAIKOLOA*        N/A     81  59  47 W8          N/A
$$

HIZ027>028-062000-
BIG ISLAND OF HAWAII INTERIOR AND SUMMMITS-

CITY           SKY/WX    TMP DP  RH WIND       PRES   REMARKS
BRADSHAW FIELD SUNNY     63  45  50 W6        30.37R
MK VISITOR CEN   N/A     54  37  54 W10         N/A
MAUNA KEA*       N/A     46   3  17 CALM        N/A
MAUNA LOA*       N/A     54   5  14 MISG        N/A
MAUNA LOA 1*   NOT AVBL
PTA KIPUKA*      N/A    N/A N/A N/A W3G9        N/A
PTA RANGE 17*    N/A     64  45  48 NW6G12      N/A
PTA WEST*        N/A     48  36  61 NW6G12      N/A
NENE CABIN*      N/A     54  48  82 E6G12       N/A
AHUMOA*          N/A     58  54  88 NW6G12      N/A
PTA PORTABLE*  NOT AVBL
PUU MALI*        N/A     57  52  82 N6          N/A
$$

HIC003-062000-
NORTHWEST ISLANDS-

CITY           SKY/WX    TMP DP  RH WIND       PRES   REMARKS
MIDWAY ISLAND  CLOUDY    64  45  48 NE13      30.35R
MIDWAY NOS*      N/A     64 N/A N/A MISG      30.34R
FRENCH FRIGATE NOT AVBL
$$

PHZ110>124-180-062000-
BUOY REPORTS

STATION/POSITION TIME  TEMP    WIND        PRES    WAVE   SWELL
                       AIR SEA DIR/SP/G            HT/PER HT/DIR
                 (UTC) (F)     (DEG/KT/KT) (MB)    (FT/S) (FT/D)
BUOY 51001       1900   77 79   20/ 14/ 16 1018.0R
BUOY 51101       1850   72 76  360/ 21/ 27 1018.3R   9/ 7   2/310
BUOY 51100       NOT AVBL
BUOY 51002       1850   76 78  120/  8/ 10 1016.8R   7/14   7/350
BUOY 51003       1850   78 78  110/ 10/ 12 1017.4R   5/13   5/310
BUOY 51004       1850   79 79  100/ 14/ 17 1017.1R   8/ 8   7/ 70
BARBERS PT BUOY  NOT AVBL
WAIMEA BAY BUOY  1904      78                N/A     4/13   3/320
KAILUA BAY BUOY  1911      78                N/A     5/ 9   2/ 20
LANAI BUOY       1915      78                N/A     4/13   3/260
BARBERS PT 2     1903      79                N/A     4/13   3/280
PAUWELA MAUI     1909      78                N/A     7/ 8   2/330
HILO             1912      78                N/A     7/ 8   2/ 70
KANEOHE BAY BUOY 1906      78                N/A     5/ 8   2/350
HANALEI KAUAI    NOT AVBL
KAHULUI HARBOR   1900   77 78   30/  6/  8 1017.6R
HONOLULU HARBOR  1900   78 78  240/  7/  9 1018.5R
KILO NALU        NOT AVBL
HILO HARBOR      1900   77 76  250/  2/  3 1018.1R
MOKUOLOE         1800   76 79   CALM  /  2 1017.4R
NAWILIWILI       1900   79 81  230/  6/ 12 1017.4F
WHOTS BUOY       NOT AVBL
BUOY 51028       NOT AVBL
$$

......................KEY........................................
  SKY/WX - SKY CONDITIONS/PRESENT WEATHER
  TMP    - TEMPERATURE IN FAHRENHEIT
  DWPT   - DEWPOINT IN FAHRENHEIT
  RH     - RELATIVE HUMIDITY IN PERCENT
  WIND   - DIRECTION AND SPEED /MPH FOR ISLANDS...KTS FOR BUOYS/
  PRES   - MEAN SEA LEVEL PRESSURE IN INCHES OF HG
  VSB    - VISIBILITY IN MILES
  HX     - HEAT INDEX
  WCI    - WIND CHILL INDEX
  VRB    - VARIABLE WIND DIRECTION
  N/A    - NOT AVAILABLE



USA.gov is the U.S. government's official web portal to all federal, state and local government web resources and services.